Montpelier, VT

1:46 AM EST on December 12, 2017 (GMT -0500)
Knapp State

Weather History for KMPV - July, 2013

Change the Weather History Date:

Thursday, July 4, 2013

  Actual Average Record
Temperature  
Mean Temperature 76 °F 67 °F  
Max Temperature 86 °F 78 °F 92 °F (1983)
Min Temperature 65 °F 55 °F 39 °F (1962)
Degree Days  
Heating Degree Days 0 2  
Month to date heating degree days 8  
Since 1 June heating degree days 129  
Since 1 July heating degree days 8  
Cooling Degree Days 11 3  
Month to date cooling degree days 23 12  
Year to date cooling degree days 102 75  
Since 1 June cooling degree days 91 65  
Growing Degree Days 24 (Base 50)    
Moisture  
Dew Point 69 °F    
Average Humidity 81    
Maximum Humidity 100    
Minimum Humidity 61    
Precipitation  
Precipitation 0.69 in 0.11 in 1.47 in (1990)
Month to date precipitation 2.29 0.45  
Year to date precipitation 19.91 17.16  
Sea Level Pressure  
Sea Level Pressure 30.20 in    
Wind  
Wind Speed 3 mph (East)    
Max Wind Speed 18 mph    
Max Gust Speed 26 mph    
Visibility 6 miles    
Events Fog , Rain , Thunderstorm    
T = Trace of Precipitation, MM = Missing Value Source: NWS Daily Summary

Daily Weather History Graph

Daily Weather History Graph

Search for Another Location

Airport or City:

Trip Planner

Search our weather history database for the weather conditions in past years. The results will help you decide how hot, cold, wet, or windy it might be!

Date:

Astronomy

Jul. 04, 2013 Rise Set
Actual Time 5:12 AM EDT 8:36 PM EDT
Civil Twilight 4:36 AM EDT 9:12 PM EDT
Nautical Twilight 3:48 AM EDT 9:59 PM EDT
Astronomical Twilight 2:49 AM EDT 10:59 PM EDT
Moon 2:30 AM EDT (7/4) 5:36 PM EDT (7/4)
Length of Visible Light 16h 36m
Length of Day
15h 24m
Waning Crescent, 11% of the Moon is Illuminated
Jul 4
Waning Crescent
Jul 8
New
Jul 15
First Quarter
Jul 22
Full
Jul 29
Last Quarter

Hourly Weather History & Observations

Time (EDT) Temp. Heat Index Dew Point Humidity Pressure Visibility Wind Dir Wind Speed Gust Speed Precip Events Conditions
12:36 AM 69.8 °F - 68.0 °F 94% 30.23 in 0.8 mi Calm Calm - 0.00 in   Scattered Clouds
12:49 AM 69.8 °F - 69.8 °F 100% 30.23 in 0.2 mi Calm Calm - 0.00 in Fog Fog
12:51 AM 69.1 °F - 69.1 °F 100% 30.22 in 0.2 mi Calm Calm - 0.00 in Fog Fog
1:51 AM 68.0 °F - 68.0 °F 100% 30.21 in 0.5 mi Calm Calm - N/A Fog Fog
2:51 AM 69.1 °F - 69.1 °F 100% 30.21 in 0.2 mi Calm Calm - N/A Fog Fog
3:51 AM 68.0 °F - 68.0 °F 100% 30.21 in 0.2 mi Calm Calm - N/A Fog Fog
4:22 AM 66.2 °F - 66.2 °F 100% 30.22 in 1.2 mi Calm Calm - N/A   Mostly Cloudy
4:27 AM 66.2 °F - 66.2 °F 100% 30.22 in 2.0 mi SSE 3.5 mph - N/A   Mostly Cloudy
4:46 AM 66.2 °F - 66.2 °F 100% 30.22 in 1.2 mi Calm Calm - N/A   Scattered Clouds
4:47 AM 66.0 °F - 66.0 °F 100% 30.21 in 1.2 mi Calm Calm - N/A   Scattered Clouds
4:51 AM 66.2 °F - 66.2 °F 100% 30.22 in 0.8 mi Calm Calm - N/A   Scattered Clouds
4:59 AM 66.2 °F - 66.2 °F 100% 30.22 in 1.2 mi Calm Calm - N/A   Scattered Clouds
5:05 AM 66.2 °F - 66.2 °F 100% 30.23 in 0.8 mi Calm Calm - N/A   Mist
5:51 AM 64.9 °F - 64.9 °F 100% 30.22 in 0.2 mi Calm Calm - N/A Fog Fog
6:51 AM 68.0 °F - 68.0 °F 100% 30.23 in 0.2 mi Calm Calm - N/A Fog Fog
7:38 AM 69.8 °F - 69.8 °F 100% 30.25 in 1.8 mi Calm Calm - N/A   Overcast
7:40 AM 69.8 °F - 69.8 °F 100% 30.24 in 3.0 mi Calm Calm - N/A   Overcast
7:51 AM 70.0 °F - 70.0 °F 100% 30.24 in 8.0 mi Calm Calm - N/A   Overcast
8:32 AM 71.6 °F - 71.6 °F 100% 30.25 in 10.0 mi ENE 3.5 mph - N/A   Scattered Clouds
8:51 AM 73.0 °F - 71.1 °F 93% 30.24 in 10.0 mi SSE 6.9 mph - N/A   Partly Cloudy
8:58 AM 73.4 °F - 71.6 °F 94% 30.25 in 10.0 mi SSE 6.9 mph - N/A   Partly Cloudy
9:11 AM 75.2 °F - 71.6 °F 89% 30.25 in 10.0 mi SE 4.6 mph - N/A   Mostly Cloudy
9:51 AM 75.9 °F - 72.0 °F 87% 30.23 in 10.0 mi Calm Calm - N/A   Mostly Cloudy
10:27 AM 77.0 °F - 71.6 °F 83% 30.24 in 10.0 mi ESE 5.8 mph - 0.01 in   Overcast
10:51 AM 77.0 °F - 72.0 °F 84% 30.22 in 10.0 mi ESE 3.5 mph - 0.01 in   Overcast
11:51 AM 80.1 °F 84.2 °F 73.0 °F 79% 30.21 in 10.0 mi South 4.6 mph - N/A   Overcast
12:51 PM 82.9 °F 87.0 °F 70.0 °F 65% 30.19 in 10.0 mi Variable 4.6 mph - N/A   Scattered Clouds
1:51 PM 84.9 °F 88.8 °F 69.1 °F 59% 30.16 in 10.0 mi Variable 5.8 mph - N/A   Scattered Clouds
2:51 PM 82.9 °F 86.5 °F 69.1 °F 63% 30.15 in 10.0 mi Variable 4.6 mph - N/A   Scattered Clouds
3:51 PM 80.1 °F 83.6 °F 71.1 °F 74% 30.15 in 10.0 mi West 3.5 mph - 0.00 in   Overcast
4:44 PM 78.8 °F - 71.6 °F 78% 30.17 in 10.0 mi NNW 12.7 mph 25.3 mph N/A Thunderstorm Overcast
4:51 PM 75.0 °F - 69.1 °F 82% 30.16 in 10.0 mi NNW 17.3 mph 26.5 mph N/A Thunderstorm Overcast
5:21 PM 71.6 °F - 69.8 °F 94% 30.15 in 10.0 mi NE 3.5 mph - 0.00 in Thunderstorm Thunderstorm
5:44 PM 71.6 °F - 69.8 °F 94% 30.16 in 9.0 mi Calm Calm - 0.01 in Rain , Thunderstorm Light Rain
5:51 PM 71.1 °F - 70.0 °F 96% 30.19 in 5.0 mi WNW 12.7 mph - 0.05 in Rain , Thunderstorm Thunderstorms and Rain
5:55 PM 69.8 °F - 69.8 °F 100% 30.20 in 1.8 mi WNW 8.1 mph - 0.15 in Rain , Thunderstorm Heavy Thunderstorms and Rain
5:59 PM 69.8 °F - 69.8 °F 100% 30.20 in 1.0 mi NW 8.1 mph - 0.32 in Rain , Thunderstorm Heavy Thunderstorms and Rain
6:05 PM 69.8 °F - 69.8 °F 100% 30.20 in 0.5 mi NW 5.8 mph - 0.56 in Fog , Rain , Thunderstorm Heavy Thunderstorms and Rain
6:13 PM 69.8 °F - 69.8 °F 100% 30.18 in 1.0 mi ENE 4.6 mph - 0.62 in Rain , Thunderstorm Heavy Thunderstorms and Rain
6:15 PM 69.8 °F - 69.8 °F 100% 30.18 in 1.5 mi NE 4.6 mph - 0.62 in Rain , Thunderstorm Thunderstorms and Rain
6:19 PM 71.6 °F - 69.8 °F 94% 30.19 in 3.0 mi East 5.8 mph - 0.63 in Rain , Thunderstorm Light Thunderstorms and Rain
6:21 PM 71.6 °F - 69.8 °F 94% 30.19 in 4.0 mi East 4.6 mph - 0.63 in Rain , Thunderstorm Light Thunderstorms and Rain
6:27 PM 71.6 °F - 69.8 °F 94% 30.18 in 6.0 mi ENE 3.5 mph - 0.63 in Rain , Thunderstorm Light Thunderstorms and Rain
6:38 PM 71.6 °F - 69.8 °F 94% 30.18 in 10.0 mi East 3.5 mph - 0.63 in Thunderstorm Thunderstorm
6:51 PM 72.0 °F - 70.0 °F 93% 30.17 in 10.0 mi SSE 4.6 mph - 0.63 in   Mostly Cloudy
7:04 PM 71.6 °F - 69.8 °F 94% 30.17 in 10.0 mi South 5.8 mph - N/A   Partly Cloudy
7:51 PM 72.0 °F - 70.0 °F 93% 30.16 in 10.0 mi South 3.5 mph - N/A   Partly Cloudy
8:51 PM 70.0 °F - 70.0 °F 100% 30.16 in 10.0 mi Calm Calm - N/A   Partly Cloudy
9:51 PM 68.0 °F - 68.0 °F 100% 30.17 in 10.0 mi Calm Calm - N/A   Clear
10:51 PM 69.1 °F - 68.0 °F 96% 30.17 in 4.0 mi NNE 4.6 mph - N/A   Partly Cloudy
11:51 PM 69.1 °F - 66.9 °F 93% 30.17 in 10.0 mi Calm Calm - N/A   Clear